Regional Weather Roundup
Issued by NWS Charleston, SC

Current Version | Previous Version | Text Only | Print | Product List | Glossary Off
Versions: 1 2 3 4 5 6 7 8 9 10 11 12 13 14 15 16 17 18 19 20 21 22 23 24 25 26 27 28 29 30 31 32 33 34 35 36 37 38 39 40 41 42 43 44 45 46 47 48 49 50

000
ASUS42 KCHS 190627
RWRCHS

REGIONAL WEATHER ROUNDUP
NATIONAL WEATHER SERVICE CHARLESTON SC
100 AM EST THU JAN 19 2017

NOTE: "FAIR" INDICATES FEW OR NO CLOUDS BELOW 12,000 FEET WITH NO
SIGNIFICANT WEATHER AND/OR OBSTRUCTIONS TO VISIBILITY.

NOT ALL STATIONS ARE QUALITY CONTROLLED. USE DATA WITH CAUTION...
ESPECIALLY DEWPOINT OBSERVATIONS.

SCZ027-030-031-034>040-042>050-190700-
...SOUTHEAST SOUTH CAROLINA...

CITY           SKY/WX    TMP DP  RH WIND       PRES   REMARKS
N CHARLESTON   CLEAR     59  56  89 N3        30.01F
6HR MIN TEMP:  59; 6HR MAX TEMP:  71;

WATERFRONT PRK   N/A     65  61  87 VRB3      30.00F
MOUNT PLEASANT FAIR      57  55  94 CALM      30.01S
JOHNS ISLAND   FAIR      63  61  94 W6        30.01F
PINOPOLIS        N/A     61  61 100 CALM      29.93F
MONCKS CORNER  FAIR      52  52 100 CALM      30.01F FOG
SUMMERVILLE    FAIR     N/A N/A N/A CALM      30.02F
BEAUFORT MCAS  CLEAR     58  56  93 W5        30.03F
6HR MIN TEMP:  56; 6HR MAX TEMP:  71;

BEAUFORT ARPT  FAIR      61  57  88 W7        30.03F
HILTON HEAD IS CLEAR     61  59  94 CALM      30.05S
WALTERBORO     CLEAR     55  55 100 W3        30.03F
ALLENDALE      FAIR      57  55  94 CALM      30.03S

...SOUTHERN MIDLANDS AND PEE DEE...

CITY           SKY/WX    TMP DP  RH WIND       PRES   REMARKS
GEORGETOWN     FAIR      52  46  82 E5        30.03S
KINGSTREE      FAIR      45  43  93 CALM      30.04R
ORANGEBURG     CLEAR     59  51  75 N6        30.02F
6HR MIN TEMP:  56; 6HR MAX TEMP:  68;

BARNWELL       FOG       55  55 100 CALM      30.04S VSB 3/4
AIKEN          FAIR      52  46  82 CALM      30.08S
MANNING        FAIR      46  32  57 CALM      30.03R
COLUMBIA       CLEAR     50  43  77 CALM      30.04S
6HR MIN TEMP:  48; 6HR MAX TEMP:  68;

SUMTER         CLEAR     51  39  64 NE6       30.01S
6HR MIN TEMP:  46; 6HR MAX TEMP:  66;

FLORENCE       CLEAR     51  40  65 N6        30.05S
6HR MIN TEMP:  48; 6HR MAX TEMP:  65;

MYRTLE BEACH   CLEAR     55  46  71 E6        30.05F
N MYRTLE BEACH CLEAR     55  51  86 E5        30.03F
6HR MIN TEMP:  48; 6HR MAX TEMP:  60;


$$

GAZ063-065-086>088-099>101-113>116-118-119-134>141-150-190700-
...SOUTHEAST GEORGIA...

CITY           SKY/WX    TMP DP  RH WIND       PRES   REMARKS
SAVANNAH ARPT  CLEAR     61  56  83 W5        30.05S
6HR MIN TEMP:  60; 6HR MAX TEMP:  70;

HUNTER AAF     CLEAR     62  61  96 W6        30.02S
6HR MIN TEMP:  60; 6HR MAX TEMP:  69;

FORT STEWART   CLEAR     63  58  86 W8        30.02F
6HR MIN TEMP:  62; 6HR MAX TEMP:  65;

STATESBORO     CLEAR     62  60  92 NW3       30.05S
SYLVANIA       PTCLDY   N/A N/A N/A NW3       30.05F
CLAXTON        FAIR     N/A N/A N/A CALM      30.05F

...CSRA...CENTRAL AND FAR SOUTHEAST GEORGIA...

CITY           SKY/WX    TMP DP  RH WIND       PRES   REMARKS
THOMSON        PTCLDY    54  53  95 CALM      30.11S
AUGUSTA-BUSH   PTCLDY    55  53  93 CALM        N/A
6HR MIN TEMP:  54; 6HR MAX TEMP:  72;

AUGUSTA-DANIEL PTCLDY    63  48  58 W6        30.05S
SWAINSBORO     FAIR      61  59  94 MISG      30.06F
VIDALIA        CLEAR     61  61 100 CALM      30.06F
EASTMAN        FAIR      56  56 100 CALM      30.10F
HAZLEHURST     FAIR      61  61 100 CALM      30.07S
ALMA           CLEAR     58  57  97 NW3       30.07F
6HR MIN TEMP:  56; 6HR MAX TEMP:  66;

WAYCROSS       CLEAR     59  59 100 CALM      30.07F
JESUP          FAIR      63  57  82 W5        30.06F
BAXLEY         FAIR      59  59 100 CALM      30.07S
BRUNSWICK      CLEAR     63  61  94 W6        30.05F
SAINT SIMONS   CLEAR     64  59  83 W8        30.06F
6HR MIN TEMP:  62; 6HR MAX TEMP:  69;


$$

SCZ027-028-034-036>038-045-046-048>050-GAZ119-141-190700-
...LAKE AND SUPPLEMENTAL COASTAL OBSERVATIONS...

STATION/POSITION TIME  TEMP    WIND        PRES    WAVE   SWELL
                       AIR SEA DIR/SP/G            HT/PER HT/PER/DIR
                 (UTC) (F)     (DEG/KT/KT) (MB)    (FT/S) (FT/S/D)
WINYAH BAY       0530   57      50/  4     1016.0F
LAKE MURRAY      0520   53      CALM  /  1 1017.3
ACE BASIN NERRS  0545   58        CALM     1017.0S
FORT PULASKI     0600   62 57  280/  4/  4 1017.4
SAPELO ISLAND    0530   63     270/  6     1018.0S

$$

ANZ835-935-AMZ111-154-330-350-352-354-370-450-454-472-190700-
...C-MAN AND BUOY OBSERVATIONS...

STATION/POSITION TIME  TEMP    WIND        PRES    WAVE   SWELL
                       AIR SEA DIR/SP/G            HT/PER HT/PER/DIR
                 (UTC) (F)     (DEG/KT/KT) (MB)    (FT/S) (FT/S/D)
BUOY 41004       0550   69 71  300/ 14/ 16 1015.4F   3/ 5   2/130/10
BUOY 41008       0550   63 60  260/ 14/ 16 1016.7F   1/ 9   2/100/ 9
FOLLY BEACH CMAN 0600   63     270/  3/  6 1016.5F
CAPERS NEARSHORE 0508   58 55  280/  4/  6 1016.3F
FRIPP NEARSHORE  0608   60 57  260/  6/  8 1016.5F


STATION/POSITION TIME  TEMP    WIND        PRES    WAVE   SWELL
                       AIR SEA DIR/SP/G            HT/PER HT/PER/DIR
                 (UTC) (F)     (DEG/KT/KT) (MB)    (FT/S) (FT/S/D)
5E ST. MARYS GA  0600      63                N/A     1/10
FRYING PAN BUOY  0600   64 71   60/ 12/ 16 1016.3
BUOY 41025       0550   54 76   10/ 16/ 19 1016.3F   4/ 6   3/ 20/ 7
CAPE LOOKOUT NC  0600   52      20/ 10/ 13 1016.7F
BUOY 41002       0550   68 72   10/ 21/ 25 1014.4F   8/ 8   3/240/13
BUOY 41010       NOT AVBL
ST AUGUSTINE FL  0600   65 62  260/  6/  7 1018.8F


$$




USA.gov is the U.S. government's official web portal to all federal, state and local government web resources and services.